User: anonymous   Login
Location: Cabeza de los Veneras
(40.2000°N, 5.2000°W)
Time: 03:06:48
(UTC+00:00)
Language:

Genesis I - Orbit

View from above orbital plane
View from above orbital plane
View from above satellite
View from above satellite

Ground track
Ground track

The orbit data is extracted from the following two-line orbital elements,

1 29252U 06029A   24174.50237201  .00016491  00000-0  42654-3 0  9990
2 29252  64.5138 148.1376 0025050 323.5788  36.3640 15.38930122991406
Epoch (UTC): 22 June 2024 12:03:24
Eccentricity: 0.0025050
inclination: 64.5138°
perigee height: 432 km
apogee height: 466 km
right ascension of ascending node: 148.1376°
argument of perigee: 323.5788°
revolutions per day: 15.38930122
mean anomaly at epoch: 36.3640°
orbit number at epoch: 99140

The dashed part of the orbit path shows where the satellite is in the earth's shadow,  

DLR